AGJ920 ZSPD-RCTP

Flight info

Callsign AGJ920
Flight time 1h 12m
Altitude 350
Route HSN02D KASKA BERBA FITCH BESTO COPRA BAKE1A
Aircraft B789/H-SDE3FG/L

Departure

Time 2026-05-07 17:53
Airport Shanghai Pudong International Airport (ZSPD)

Arrival

Time 2026-05-07 19:05
Airport Taiwan Taoyuan International Airport (RCTP)
Time Latitude Longitude Altitude Speed Heading
2026-05-07 17:19 31.13611 121.80959 28 ft 0 kts 342°
2026-05-07 17:39 31.13603 121.80962 9 ft 2 kts 342°
2026-05-07 17:39 31.13587 121.80968 27 ft 2 kts 342°
2026-05-07 17:39 31.13571 121.80974 28 ft 2 kts 342°
2026-05-07 17:39 31.13556 121.80981 27 ft 2 kts 326°
2026-05-07 17:40 31.13546 121.80995 27 ft 2 kts 290°
2026-05-07 17:40 31.13544 121.81014 26 ft 2 kts 255°
2026-05-07 17:40 31.13548 121.81024 26 ft 0 kts 242°
2026-05-07 17:44 31.13547 121.81024 26 ft 0 kts 242°
2026-05-07 17:44 31.13547 121.81023 26 ft 1 kts 242°
2026-05-07 17:44 31.13552 121.81033 26 ft 2 kts 242°
2026-05-07 17:45 31.13557 121.81041 26 ft 1 kts 193°
2026-05-07 17:45 31.13511 121.81046 28 ft 12 kts 168°
2026-05-07 17:45 31.13415 121.81078 28 ft 15 kts 163°
2026-05-07 17:45 31.13312 121.81117 28 ft 16 kts 162°
2026-05-07 17:46 31.13202 121.81158 28 ft 17 kts 163°
2026-05-07 17:46 31.13089 121.81200 28 ft 18 kts 162°
2026-05-07 17:46 31.13006 121.81272 28 ft 12 kts 80°
2026-05-07 17:46 31.13028 121.81363 28 ft 12 kts 71°
2026-05-07 17:47 31.13058 121.81455 28 ft 12 kts 68°
2026-05-07 17:47 31.13082 121.81551 28 ft 13 kts 75°
2026-05-07 17:47 31.13109 121.81649 28 ft 13 kts 72°
2026-05-07 17:47 31.13135 121.81753 28 ft 13 kts 72°
2026-05-07 17:48 31.13144 121.81855 28 ft 12 kts 116°
2026-05-07 17:48 31.13078 121.81904 28 ft 12 kts 161°
2026-05-07 17:48 31.12998 121.81934 28 ft 13 kts 162°
2026-05-07 17:48 31.12910 121.81968 28 ft 14 kts 161°
2026-05-07 17:49 31.12817 121.82005 28 ft 15 kts 161°
2026-05-07 17:49 31.12717 121.82042 28 ft 15 kts 162°
2026-05-07 17:49 31.12614 121.82085 28 ft 16 kts 146°
2026-05-07 17:49 31.12597 121.82193 28 ft 14 kts 76°
2026-05-07 17:50 31.12627 121.82302 28 ft 14 kts 71°
2026-05-07 17:50 31.12684 121.82381 27 ft 13 kts 12°
2026-05-07 17:50 31.12727 121.82375 27 ft 0 kts 342°
2026-05-07 17:50 31.12735 121.82372 26 ft 2 kts 342°
2026-05-07 17:51 31.12763 121.82362 27 ft 12 kts 342°
2026-05-07 17:51 31.12783 121.82354 27 ft 0 kts 343°
2026-05-07 17:51 31.12784 121.82354 27 ft 0 kts 343°
2026-05-07 17:52 31.12812 121.82344 27 ft 21 kts 343°
2026-05-07 17:52 31.13229 121.82187 28 ft 103 kts 342°
2026-05-07 17:53 31.14139 121.81853 72 ft 164 kts 344°
2026-05-07 17:53 31.15119 121.81458 1322 ft 132 kts 347°
2026-05-07 17:53 31.16058 121.81127 1904 ft 153 kts 356°
2026-05-07 17:53 31.17216 121.81112 2326 ft 179 kts
2026-05-07 17:54 31.18550 121.81104 2783 ft 204 kts
2026-05-07 17:54 31.20019 121.81402 3388 ft 230 kts
2026-05-07 17:54 31.21640 121.81708 4327 ft 239 kts
2026-05-07 17:54 31.23316 121.82030 5288 ft 249 kts
2026-05-07 17:55 31.25075 121.82372 6208 ft 264 kts
2026-05-07 17:55 31.26906 121.82729 7472 ft 270 kts
2026-05-07 17:55 31.28773 121.83094 8783 ft 274 kts
2026-05-07 17:55 31.30663 121.83511 10071 ft 282 kts 13°
2026-05-07 17:56 31.32420 121.84757 10833 ft 317 kts 45°
2026-05-07 17:56 31.33537 121.87117 11524 ft 351 kts 73°
2026-05-07 17:56 31.33673 121.90063 12336 ft 375 kts 100°
2026-05-07 17:56 31.32747 121.92916 13622 ft 381 kts 124°
2026-05-07 17:57 31.30965 121.95219 14717 ft 384 kts 147°
2026-05-07 17:57 31.28653 121.96779 15849 ft 386 kts 159°
2026-05-07 17:57 31.26201 121.98116 17029 ft 392 kts 160°
2026-05-07 17:57 31.23733 121.99572 18177 ft 402 kts 157°
2026-05-07 17:58 31.21328 122.01333 19192 ft 415 kts 148°
2026-05-07 17:58 31.19160 122.03563 20200 ft 426 kts 140°
2026-05-07 17:58 31.17101 122.06100 21210 ft 434 kts 137°
2026-05-07 17:58 31.15018 122.08683 22196 ft 439 kts 140°
2026-05-07 17:59 31.12767 122.11129 23191 ft 443 kts 144°
2026-05-07 17:59 31.10432 122.13529 24070 ft 450 kts 143°
2026-05-07 17:59 31.08121 122.16045 24841 ft 458 kts 141°
2026-05-07 17:59 31.05815 122.18655 25615 ft 465 kts 141°
2026-05-07 18:00 31.03447 122.21268 26358 ft 471 kts 143°
2026-05-07 18:00 31.00958 122.23692 27098 ft 470 kts 153°
2026-05-07 18:00 30.98119 122.25557 27824 ft 467 kts 164°
2026-05-07 18:00 30.95074 122.26821 28557 ft 466 kts 170°
2026-05-07 18:01 30.92915 122.27614 29063 ft 470 kts 170°
2026-05-07 18:01 30.89770 122.28757 29809 ft 476 kts 171°
2026-05-07 18:01 30.86584 122.29921 30473 ft 483 kts 170°
2026-05-07 18:01 30.83366 122.31111 31148 ft 487 kts 170°
2026-05-07 18:02 30.76837 122.33506 32433 ft 496 kts 170°
2026-05-07 18:02 30.73525 122.34715 33054 ft 501 kts 170°
2026-05-07 18:02 30.70177 122.35942 33677 ft 505 kts 170°
2026-05-07 18:03 30.66807 122.37177 34300 ft 508 kts 170°
2026-05-07 18:03 30.63439 122.38410 34938 ft 510 kts 171°
2026-05-07 18:03 30.59997 122.39473 35090 ft 513 kts 179°
2026-05-07 18:04 30.52866 122.39773 35092 ft 523 kts 191°
2026-05-07 18:04 30.45675 122.39359 35080 ft 506 kts 191°
2026-05-07 18:05 30.38769 122.38958 35072 ft 487 kts 191°
2026-05-07 18:05 30.32108 122.38573 35070 ft 473 kts 191°
2026-05-07 18:06 30.25521 122.38184 35069 ft 481 kts 191°
2026-05-07 18:06 30.18797 122.37805 35065 ft 484 kts 191°
2026-05-07 18:07 30.12063 122.37415 35067 ft 484 kts 191°
2026-05-07 18:07 30.05329 122.37030 35070 ft 484 kts 191°
2026-05-07 18:08 29.98552 122.37107 35087 ft 497 kts 179°
2026-05-07 18:08 29.95134 122.37983 35089 ft 508 kts 170°
2026-05-07 18:08 29.91865 122.39464 35089 ft 518 kts 161°
2026-05-07 18:08 29.88727 122.41601 35086 ft 529 kts 150°
2026-05-07 18:09 29.85874 122.44341 35087 ft 537 kts 142°
2026-05-07 18:09 29.80451 122.50272 35075 ft 538 kts 142°
2026-05-07 18:10 29.75024 122.56224 35068 ft 537 kts 143°
2026-05-07 18:10 29.69585 122.62153 35063 ft 538 kts 142°
2026-05-07 18:11 29.64186 122.68050 35056 ft 539 kts 143°
2026-05-07 18:11 29.58727 122.73988 35057 ft 540 kts 142°
2026-05-07 18:12 29.53266 122.79929 35046 ft 540 kts 143°
2026-05-07 18:12 29.47808 122.85851 35041 ft 539 kts 143°
2026-05-07 18:13 29.42354 122.91763 35032 ft 539 kts 143°
2026-05-07 18:13 29.36898 122.97666 35027 ft 539 kts 143°
2026-05-07 18:14 29.31448 123.03555 35021 ft 538 kts 143°
2026-05-07 18:14 29.26018 123.09413 35022 ft 538 kts 143°
2026-05-07 18:15 29.20565 123.15287 35022 ft 538 kts 143°
2026-05-07 18:15 29.15107 123.21157 35025 ft 537 kts 143°
2026-05-07 18:16 29.09652 123.27014 35018 ft 537 kts 143°
2026-05-07 18:16 29.04204 123.32855 35010 ft 536 kts 143°
2026-05-07 18:17 28.98763 123.38681 35004 ft 536 kts 142°
2026-05-07 18:17 28.93354 123.44462 35000 ft 535 kts 142°
2026-05-07 18:18 28.87912 123.50270 35000 ft 536 kts 142°
2026-05-07 18:18 28.83379 123.55102 34994 ft 536 kts 142°
2026-05-07 18:19 28.77659 123.60891 35027 ft 527 kts 152°
2026-05-07 18:19 28.71214 123.64471 35021 ft 507 kts 172°
2026-05-07 18:20 28.64418 123.65499 35017 ft 486 kts 190°
2026-05-07 18:20 28.57899 123.64171 35016 ft 469 kts 207°
2026-05-07 18:21 28.51795 123.61549 35007 ft 470 kts 208°
2026-05-07 18:21 28.45689 123.58897 35012 ft 470 kts 208°
2026-05-07 18:22 28.39558 123.56247 35003 ft 470 kts 208°
2026-05-07 18:22 28.33442 123.53602 35003 ft 471 kts 208°
2026-05-07 18:23 28.30414 123.52294 34992 ft 471 kts 207°
2026-05-07 18:23 28.21395 123.48404 34993 ft 473 kts 207°
2026-05-07 18:24 28.15247 123.45757 34988 ft 473 kts 207°
2026-05-07 18:24 28.09089 123.43108 34985 ft 473 kts 207°
2026-05-07 18:25 28.02925 123.40460 34978 ft 474 kts 207°
2026-05-07 18:25 27.96750 123.37810 34976 ft 475 kts 207°
2026-05-07 18:26 27.90570 123.35163 34976 ft 474 kts 207°
2026-05-07 18:26 27.84450 123.32542 34975 ft 473 kts 207°
2026-05-07 18:27 27.78287 123.29908 34974 ft 474 kts 207°
2026-05-07 18:27 27.72103 123.27267 34969 ft 475 kts 207°
2026-05-07 18:28 27.65895 123.24620 34968 ft 476 kts 207°
2026-05-07 18:28 27.59693 123.21978 34970 ft 476 kts 207°
2026-05-07 18:29 27.53491 123.19339 34965 ft 477 kts 207°
2026-05-07 18:29 27.47306 123.16711 34970 ft 478 kts 207°
2026-05-07 18:30 27.41077 123.14068 34960 ft 478 kts 207°
2026-05-07 18:30 27.34844 123.11425 34959 ft 479 kts 207°
2026-05-07 18:31 27.28602 123.08783 34960 ft 479 kts 207°
2026-05-07 18:31 27.22398 123.06159 34957 ft 479 kts 207°
2026-05-07 18:32 27.16150 123.03520 34956 ft 479 kts 207°
2026-05-07 18:32 27.09891 123.00872 34957 ft 479 kts 208°
2026-05-07 18:33 27.04269 122.97181 34965 ft 469 kts 221°
2026-05-07 18:33 26.98945 122.92949 34974 ft 469 kts 221°
2026-05-07 18:34 26.93630 122.88721 34974 ft 469 kts 221°
2026-05-07 18:34 26.88420 122.84588 34968 ft 469 kts 221°
2026-05-07 18:35 26.83784 122.80910 34965 ft 470 kts 221°
2026-05-07 18:35 26.78437 122.76675 34966 ft 471 kts 221°
2026-05-07 18:36 26.73089 122.72443 34958 ft 471 kts 221°
2026-05-07 18:36 26.67744 122.68219 34955 ft 471 kts 221°
2026-05-07 18:37 26.62396 122.63995 34949 ft 471 kts 220°
2026-05-07 18:37 26.57039 122.59769 34948 ft 471 kts 220°
2026-05-07 18:38 26.51689 122.55553 34946 ft 471 kts 220°
2026-05-07 18:38 26.46366 122.51362 34946 ft 472 kts 220°
2026-05-07 18:39 26.40998 122.47142 34948 ft 472 kts 220°
2026-05-07 18:39 26.35620 122.42919 34944 ft 472 kts 220°
2026-05-07 18:40 26.30242 122.38701 34945 ft 473 kts 220°
2026-05-07 18:40 26.24855 122.34480 34944 ft 473 kts 220°
2026-05-07 18:41 26.19472 122.30268 34938 ft 473 kts 220°
2026-05-07 18:41 26.14120 122.26084 34947 ft 473 kts 220°
2026-05-07 18:42 26.13212 122.25375 34948 ft 473 kts 220°
2026-05-07 18:42 26.03819 122.18198 34877 ft 464 kts 219°
2026-05-07 18:42 26.01162 122.16151 34443 ft 466 kts 219°
2026-05-07 18:43 25.98482 122.14094 33860 ft 472 kts 218°
2026-05-07 18:43 25.95763 122.12023 33269 ft 475 kts 218°
2026-05-07 18:43 25.93026 122.09938 32717 ft 478 kts 218°
2026-05-07 18:43 25.90309 122.07862 32156 ft 480 kts 218°
2026-05-07 18:44 25.87547 122.05750 31594 ft 482 kts 218°
2026-05-07 18:44 25.84776 122.03637 31031 ft 484 kts 218°
2026-05-07 18:44 25.81991 122.01518 30460 ft 486 kts 218°
2026-05-07 18:44 25.79199 121.99391 29871 ft 487 kts 218°
2026-05-07 18:45 25.76402 121.97260 29293 ft 487 kts 217°
2026-05-07 18:45 25.73614 121.95140 28728 ft 486 kts 217°
2026-05-07 18:45 25.70829 121.93019 28170 ft 485 kts 218°
2026-05-07 18:45 25.68063 121.90881 27610 ft 484 kts 218°
2026-05-07 18:46 25.65501 121.88497 27070 ft 479 kts 227°
2026-05-07 18:46 25.63884 121.86514 26666 ft 477 kts 233°
2026-05-07 18:46 25.62025 121.83489 26136 ft 473 kts 241°
2026-05-07 18:46 25.60395 121.80322 25585 ft 469 kts 242°
2026-05-07 18:47 25.58827 121.77268 25058 ft 443 kts 242°
2026-05-07 18:47 25.57364 121.74409 24572 ft 421 kts 242°
2026-05-07 18:47 25.55956 121.71662 24101 ft 400 kts 242°
2026-05-07 18:47 25.54609 121.69044 23679 ft 383 kts 242°
2026-05-07 18:48 25.53320 121.66537 23211 ft 366 kts 242°
2026-05-07 18:48 25.52059 121.64083 22810 ft 368 kts 242°
2026-05-07 18:48 25.50791 121.61616 22406 ft 370 kts 242°
2026-05-07 18:48 25.49513 121.59134 22000 ft 371 kts 242°
2026-05-07 18:49 25.48074 121.56747 21572 ft 375 kts 232°
2026-05-07 18:49 25.46360 121.54538 21041 ft 380 kts 231°
2026-05-07 18:49 25.44619 121.52314 20539 ft 384 kts 231°
2026-05-07 18:49 25.42881 121.50094 20020 ft 388 kts 231°
2026-05-07 18:50 25.41100 121.47809 19135 ft 401 kts 231°
2026-05-07 18:50 25.39240 121.45421 18157 ft 414 kts 231°
2026-05-07 18:50 25.37379 121.43046 17015 ft 402 kts 231°
2026-05-07 18:50 25.35569 121.40743 15918 ft 391 kts 231°
2026-05-07 18:51 25.33813 121.38499 14863 ft 381 kts 231°
2026-05-07 18:51 25.32097 121.36305 13840 ft 372 kts 231°
2026-05-07 18:51 25.30939 121.34826 13068 ft 366 kts 231°
2026-05-07 18:51 25.29398 121.32861 12033 ft 359 kts 230°
2026-05-07 18:52 25.27802 121.30828 11225 ft 347 kts 230°
2026-05-07 18:52 25.26280 121.28891 10991 ft 318 kts 230°
2026-05-07 18:52 25.24899 121.27133 10978 ft 287 kts 230°
2026-05-07 18:52 25.23645 121.25535 10828 ft 265 kts 230°
2026-05-07 18:53 25.22455 121.24019 10546 ft 260 kts 230°
2026-05-07 18:53 25.21270 121.22508 10283 ft 260 kts 230°
2026-05-07 18:53 25.20084 121.21001 10030 ft 260 kts 230°
2026-05-07 18:53 25.18897 121.19491 9739 ft 261 kts 230°
2026-05-07 18:54 25.17698 121.17967 9371 ft 264 kts 230°
2026-05-07 18:54 25.16491 121.16433 9030 ft 266 kts 230°
2026-05-07 18:54 25.15277 121.14890 8694 ft 267 kts 230°
2026-05-07 18:54 25.14071 121.13359 8363 ft 268 kts 230°
2026-05-07 18:55 25.12843 121.11800 8059 ft 268 kts 230°
2026-05-07 18:55 25.11619 121.10247 7774 ft 268 kts 230°
2026-05-07 18:55 25.10398 121.08696 7492 ft 267 kts 230°
2026-05-07 18:55 25.09182 121.07150 7201 ft 266 kts 229°
2026-05-07 18:56 25.07971 121.05612 6930 ft 265 kts 229°
2026-05-07 18:56 25.06764 121.04080 6649 ft 264 kts 229°
2026-05-07 18:56 25.05563 121.02555 6372 ft 263 kts 229°
2026-05-07 18:56 25.04382 121.01056 6093 ft 262 kts 229°
2026-05-07 18:57 25.03190 120.99545 5782 ft 261 kts 229°
2026-05-07 18:57 25.02002 120.98038 5490 ft 260 kts 229°
2026-05-07 18:57 25.00818 120.96535 5185 ft 259 kts 229°
2026-05-07 18:57 24.99644 120.95035 4848 ft 260 kts 229°
2026-05-07 18:58 24.98468 120.93534 4634 ft 256 kts 228°
2026-05-07 18:58 24.97302 120.92109 4570 ft 245 kts 223°
2026-05-07 18:58 24.96376 120.91441 4510 ft 239 kts 198°
2026-05-07 18:59 24.93462 120.93220 4452 ft 217 kts 105°
2026-05-07 18:59 24.93519 120.94874 4406 ft 217 kts 82°
2026-05-07 18:59 24.93812 120.96463 4347 ft 208 kts 80°
2026-05-07 18:59 24.94102 120.98012 4296 ft 205 kts 81°
2026-05-07 19:00 24.94366 120.99542 4230 ft 204 kts 81°
2026-05-07 19:00 24.94624 121.01073 4098 ft 200 kts 81°
2026-05-07 19:00 24.94877 121.02552 3948 ft 194 kts 81°
2026-05-07 19:00 24.95123 121.03994 3712 ft 194 kts 81°
2026-05-07 19:01 24.95372 121.05455 3464 ft 194 kts 80°
2026-05-07 19:01 24.95716 121.06882 3230 ft 192 kts 60°
2026-05-07 19:01 24.96613 121.07881 3199 ft 180 kts 43°
2026-05-07 19:01 24.97321 121.09017 2998 ft 179 kts 55°
2026-05-07 19:02 24.98164 121.10024 2779 ft 178 kts 49°
2026-05-07 19:02 24.98967 121.11062 2549 ft 177 kts 49°
2026-05-07 19:02 24.99773 121.12083 2329 ft 176 kts 49°
2026-05-07 19:02 25.00572 121.13096 2107 ft 175 kts 49°
2026-05-07 19:03 25.01367 121.14103 1864 ft 173 kts 49°
2026-05-07 19:03 25.02157 121.15105 1669 ft 173 kts 48°
2026-05-07 19:03 25.02944 121.16103 1423 ft 172 kts 48°
2026-05-07 19:03 25.03719 121.17084 1208 ft 171 kts 48°
2026-05-07 19:04 25.04494 121.18067 1000 ft 169 kts 49°
2026-05-07 19:04 25.04968 121.18667 852 ft 168 kts 49°
2026-05-07 19:04 25.05733 121.19637 634 ft 167 kts 49°
2026-05-07 19:04 25.06496 121.20596 394 ft 166 kts 48°
2026-05-07 19:05 25.07256 121.21547 161 ft 161 kts 50°
2026-05-07 19:05 25.07925 121.22407 109 ft 129 kts 49°
2026-05-07 19:05 25.08398 121.23006 104 ft 62 kts 49°
2026-05-07 19:05 25.08559 121.23210 107 ft 30 kts 49°
2026-05-07 19:06 25.08657 121.23343 107 ft 18 kts 58°
2026-05-07 19:06 25.08705 121.23486 107 ft 4 kts 77°
2026-05-07 19:06 25.08713 121.23522 106 ft 6 kts 78°
2026-05-07 19:07 25.08723 121.23575 106 ft 8 kts 78°
2026-05-07 19:07 25.08733 121.23640 106 ft 9 kts 80°
2026-05-07 19:07 25.08744 121.23714 106 ft 10 kts 80°
2026-05-07 19:07 25.08741 121.23793 106 ft 10 kts 111°
2026-05-07 19:08 25.08690 121.23841 107 ft 9 kts 174°
2026-05-07 19:08 25.08644 121.23811 107 ft 8 kts 226°
2026-05-07 19:08 25.08604 121.23763 107 ft 9 kts 227°
2026-05-07 19:08 25.08557 121.23709 107 ft 10 kts 217°
2026-05-07 19:09 25.08501 121.23713 107 ft 8 kts 144°
2026-05-07 19:09 25.08473 121.23748 107 ft 2 kts 128°
2026-05-07 19:09 25.08463 121.23763 107 ft 3 kts 128°
2026-05-07 19:09 25.08461 121.23766 105 ft 0 kts 128°